Weather in Valbonne

France     43°38′32″N   7°00′26″E
temp.,
°C
wind,
m/s
gust,
m/s
humid.,
%
clouds,
%
prec.,
mm/h
press.,
hPa
HPBL,
m
12 april, mon
mon1223:00+8se118878 0.1 1019248
02:00+7se1193100 0.1 1018218
05:00+7ne1294100 0.9 1016151
08:00+7se1199100 4.2 1015179
11:00+7nnw2289100 3.6 1015208
14:00+9sse218487 3.9 1014412
17:00+8sse2296100 0.9 1013261
20:00+7ssw119797 1.8 1014190
13 april, tue
tue1323:00+7nw239199 3.4 1016275
02:00+5wnw338855 3.8 101659
05:00+4nw338137 0.0 101654
08:00+4nnw337210 0.0 101783
11:00+10ese11563 0.0 1017814
14:00+12sse435746 0.0 10181177
17:00+8s236937 0.1 1019676
20:00+7sse227545 0.1 1020530
14 april, wed
wed1423:00+6ssw117971 0.0 1022337
02:00+6nne017971 0.0 1022199
05:00+6se128799 0.3 1022298
08:00+5se229392 0.8 1022327
11:00+6sse2296100 1.9 1023351
14:00+5se2295100 3.3 1022422
17:00+5se229499 0.7 1021539
20:00+5ese1194100 0.9 1020240
15 april, thu
thu1523:00+5ese119394 0.1 1021204
02:00+5sse008894 0.1 1020288
05:00+5ese119192 0.0 1020173
08:00+5ese119290 0.2 1020237
11:00+6se117586 0.3 1020829
14:00+7s227365 0.8 1019884
17:00+5sse2286100 0.5 1019727
20:00+5se118693 0.8 1018391
16 april, fri
fri1623:00+5nne018698 0.1 1019283
02:00+5ne1188100 0.1 101875
05:00+5n0087100 0.1 101717
08:00+5nne1181100 0.1 1017183
11:00+8ese1162100 0.1 1016852
14:00+9sse225386 0.3 10151313
17:00+9se225996 0.4 10131189
20:00+6wsw017499 1.0 1014779